Regional Weather Roundup
Issued by NWS

Home | Current Version | Previous Version | Text Only | Print | Product List | Glossary Off
Versions: 1 2 3 4 5 6 7 8 9 10 11 12 13 14 15 16 17 18 19 20 21 22 23 24 25 26 27 28 29 30 31 32 33 34 35 36 37 38 39 40 41 42 43 44 45 46 47 48 49 50

000
ASUS43 KMKX 190411
RWRWI

WISCONSIN REGIONAL WEATHER ROUNDUP
NATIONAL WEATHER SERVICE MILWAUKEE/SULLIVAN WI
1100 PM CDT SAT APR 18 2015

NOTE: "FAIR" INDICATES FEW OR NO CLOUDS BELOW 12,000 FEET WITH NO
SIGNIFICANT WEATHER AND/OR OBSTRUCTIONS TO VISIBILITY.

WIZ001-002-006>008-014>016-023>028-190500-
NORTHWEST WISCONSIN

CITY           SKY/WX    TMP DP  RH WIND       PRES   REMARKS
SUPERIOR ARPT  CLOUDY    38  32  79 NE16      30.02F WCI  29
ASHLAND        CLOUDY    34  32  92 W3        30.02F
HAYWARD        CLOUDY    47  33  58 N3        29.97F
SIREN          CLOUDY    51  34  52 E3        29.96F
CUMBERLAND     CLOUDY    54  21  28 SE9       29.97R
RICE LAKE      CLOUDY    56  20  24 E9G18     29.98F
CHETEK         CLOUDY    56  21  26 SE9G20    29.97F
LADYSMITH      CLOUDY    55  14  19 SE9       30.01F
EAU CLAIRE     CLOUDY    56  21  25 E12       29.95F
MENOMONIE      CLOUDY    57  27  31 E8        29.97S
NEW RICHMOND   DRIZZLE   57  30  35 SE9       29.94F
OSCEOLA        CLOUDY    58  31  36 E12       29.96S
$$

WIZ003>005-009-010-017-018-190500-
NORTH CENTRAL WISCONSIN

CITY           SKY/WX    TMP DP  RH WIND       PRES   REMARKS
MANITOWISH WTR MOCLDY    50  15  24 SE6       30.04S
ARBOR VITAE    HAZE      52  13  21 SE10G20   30.04F VSB 3/4
WOODRUFF       HAZE      52  13  21 SE10G20   30.04F VSB 3/4
RHINELANDER    MOCLDY    47  14  26 E13       30.06F
EAGLE RIVER    PTCLDY    47  15  27 SE10      30.06F
LAND O LAKES   PTCLDY    46  27  46 SE6       30.07F
PHILLIPS       CLOUDY    51  15  24 SE9       30.02S
TOMAHAWK       PTCLDY    49  10  20 CALM      30.05F
MEDFORD        CLOUDY    49  17  27 E9G22     30.01F
MERRILL        PTCLDY    49  15  25 SE8G17    30.05F
$$

WIZ029-030-035-036-043>047-190500-
CENTRAL WISCONSIN

CITY           SKY/WX    TMP DP  RH WIND       PRES   REMARKS
WAUSAU         CLEAR     50  14  23 E15G23    30.03F
MOSINEE        PTCLDY    46  14  27 E13G18    30.05F
MARSHFIELD     CLOUDY    50  20  30 E15       30.01F
STEVENS POINT  PTCLDY    47  19  32 E15G21    30.05F
WAUPACA        CLEAR     50  24  36 NE5       30.07S
WAUTOMA        MOCLDY    50  25  38 E9        30.06S
WISC RAPIDS    PTCLDY    50  18  28 E14       30.03F
CAMP DOUGLAS   MOCLDY    51  28  39 E13       30.00F
$$

WIZ011>013-019>022-031-037>040-048>050-190500-
NORTHEAST WISCONSIN

CITY           SKY/WX    TMP DP  RH WIND       PRES   REMARKS
ANTIGO         PTCLDY    45  22  39 E16G22    30.07F
SHAWANO        CLEAR     49  29  47 NE10      30.08F
OCONTO         CLEAR     47  29  50 E8        30.08F
STURGEON BAY   CLEAR     46  25  42 E10       30.11F
GREEN BAY      CLEAR     47  31  53 NE9       30.07F
MANITOWOC      CLEAR     43  31  62 CALM      30.09R
APPLETON       PTCLDY    48  25  40 E14       30.06F
CLINTONVILLE   CLEAR     45  23  42 NE6       30.07F
OSHKOSH        CLEAR     48  30  49 E9        30.05F
$$

WIZ032>034-041-042-053>061-190500-
SOUTHWEST WISCONSIN

CITY           SKY/WX    TMP DP  RH WIND       PRES   REMARKS
LA CROSSE      CLOUDY    60  23  24 E7        29.93F
SPARTA         MOCLDY    55  24  30 E16       29.97F
VIROQUA        CLOUDY    55  28  36 E18G26    29.94F
BOSCOBEL       CLOUDY    61  32  33 VRB7G17   29.94F
PRAIRIE DU CHI CLOUDY    63  29  28 E14G24    29.91F
PLATTEVILLE    CLOUDY    58  33  38 E16       29.94F
$$

WIZ056-057-062-063-064-067-068-190500-
SOUTH CENTRAL WISCONSIN

CITY           SKY/WX    TMP DP  RH WIND       PRES   REMARKS
REEDSBURG      FAIR      53  29  40 E12G17    29.99F
BARABOO/DELLS  FAIR      51  26  38 E13       30.00F
LONE ROCK      MOCLDY    57  28  33 E21       29.96F
MINERAL POINT  CLOUDY    59  32  36 E14G23    29.95F
MADISON        MOCLDY    50  30  46 E9        30.00F
MIDDLETON      MOCLDY    53  28  37 E12G20    30.00F
WATERTOWN      CLEAR     48  32  54 E9        30.01F
MONROE         DRIZZLE   50  34  53 E10       29.98F
JANESVILLE     PTCLDY    50  32  50 E7        29.98F
$$

WIZ051-052-058>065-066-070>072-190500-
SOUTHEAST WISCONSIN

CITY           SKY/WX    TMP DP  RH WIND       PRES   REMARKS
MILWAUKEE      PTCLDY    42  32  67 E3        30.05F
WAUKESHA       CLEAR     43  30  61 E6        30.04F
MILWAUKEE/TIMM CLEAR     45  30  57 NE5       30.06F
RACINE         PTCLDY    44  32  62 NE8       30.05F
BURLINGTON     CLEAR     44  31  61 E9        30.02F
KENOSHA        PTCLDY    47  32  56 NE12      30.02F
FOND DU LAC    CLEAR     47  26  44 E8        30.05F
SHEBOYGAN      CLEAR     38  31  76 NE3       30.08S
WEST BEND      CLEAR     43  30  61 CALM      30.05F
JUNEAU         CLEAR     48  30  49 NE8       30.04F
$$

LSZ147-162-190500-
LAKE SUPERIOR

STATION/POSITION TIME  TEMP    WIND        PRES    WAVE
                       AIR SEA DIR/SP/G            HT/PER
                 (UTC) (F)     (DEG/KT/KT) (MB)    (FT/S)
DEVILS ISLAND    0400   38      70/  8/ 10 1017.4F
PORT WING        0300   37      50/ 10/ 12 1017.3
SAXON HARBOR     0340   35        CALM     1016.3F
$$

LMZ867-665-643>646-190500-
LAKE MICHIGAN

STATION/POSITION TIME  TEMP    WIND        PRES    WAVE
                       AIR SEA DIR/SP/G            HT/PER
                 (UTC) (F)     (DEG/KT/KT) (MB)    (FT/S)
CHAMBERS ISLAND  0300   41      20/ 10/ 15 1020.3S
NORTHPORT PIER   0300   47      50/ 12/ 19 1020.3F
SISTER BAY       0302   50     100/ 10/ 17   N/A
KEWAUNEE LAKESHO 0300   43      30/ 14/ 18 1018.2F
SHEBOYGAN LAKESH 0400   43      10/  7/  8 1019.2S
PORT WASHINGTON  0340   46      10/  2/  5 1019.0S
MILWAUKEE LAKESH 0300   45      20/  9/ 13   N/A
KENOSHA   LAKESH 0400   46      10/ 10/ 13 1016.6F
$$

TC  - TEMPERATURE IN CELSIUS
VSB - VISIBILITY IN STATUTE MILES
WCI - WIND CHILL INDEX
HX  - HEAT INDEX




USA.gov is the U.S. government's official web portal to all federal, state and local government web resources and services.